PST,Max TemperatureF,Mean TemperatureF,Min TemperatureF,Max Dew PointF,MeanDew PointF,Min DewpointF,Max Humidity, Mean Humidity, Min Humidity, Max Sea Level PressureIn, Mean Sea Level PressureIn, Min Sea Level PressureIn, Max VisibilityMiles, Mean VisibilityMiles, Min VisibilityMiles, Max Wind SpeedMPH, Mean Wind SpeedMPH, Max Gust SpeedMPH,PrecipitationIn, CloudCover, Events, WindDirDegrees
2012-12-1,48,46,43,46,43,40,97,90,77,29.51,29.43,29.23,10,8,2,13,4,20,0.57,8,Rain,222
2012-12-2,50,46,43,42,40,37,93,83,71,29.70,29.38,29.15,10,10,7,14,8,,0.28,6,Rain,255
2012-12-3,48,44,39,43,41,37,97,89,80,29.96,29.81,29.54,10,10,4,10,4,,0.17,6,Rain,228
2012-12-4,50,44,39,45,41,36,93,84,68,29.81,29.64,29.37,10,9,5,14,6,24,0.34,7,Rain,277
2012-12-5,46,41,36,37,35,33,93,78,61,30.16,30.08,29.83,10,10,10,12,5,,0.02,6,Rain,246
2012-12-6,44,40,37,40,38,36,93,87,79,30.14,30.07,30.03,10,9,2,15,4,20,0.08,7,Rain,256
2012-12-7,45,43,41,39,34,28,89,73,56,30.14,30.02,29.95,10,10,4,18,11,29,0.08,5,Rain,262
2012-12-8,45,42,37,36,33,31,89,72,63,30.33,30.24,30.14,10,10,10,15,8,,0.00,6,,210
2012-12-9,44,40,37,40,38,33,96,89,73,30.37,30.31,30.26,10,8,2,6,1,,0.00,8,Rain,243
2012-12-10,48,42,37,43,39,36,97,89,79,30.41,30.31,30.04,10,10,7,9,3,,0.00,6,,239
2012-12-11,45,42,39,43,40,37,96,90,80,29.99,29.65,29.53,10,9,1,10,4,,0.01,7,Rain,237
2012-12-12,44,42,39,40,39,37,93,89,81,30.03,29.83,29.62,10,9,4,9,3,,0.13,8,Rain,142
2012-12-13,43,39,35,38,35,32,96,89,74,30.04,29.90,29.76,10,10,10,7,5,,0.00,6,Rain,234
2012-12-14,41,36,30,39,36,27,97,92,82,29.91,29.83,29.76,10,10,7,7,4,,0.03,6,Rain,223
2012-12-15,43,38,32,40,34,29,93,85,76,29.84,29.60,29.45,10,10,5,,,,0.14,7,Rain,-1
2012-12-16,41,38,34,38,34,32,97,87,76,29.70,29.37,28.91,10,10,2,,,,0.16,7,Rain,-1
2012-12-17,44,39,34,39,34,29,96,82,60,29.84,29.47,28.91,10,9,2,18,14,33,0.13,7,Rain-Snow,256
2012-12-18,42,35,28,32,30,27,92,82,62,29.93,29.88,29.83,10,10,3,10,5,,0.00,4,Snow,225
2012-12-19,43,38,32,40,36,28,97,90,73,29.80,29.55,29.46,10,9,2,15,4,22,0.25,8,Rain,224
2012-12-20,44,38,33,39,36,31,93,90,79,29.77,29.59,29.46,10,10,2,10,5,,0.10,6,Rain,229
2012-12-21,45,38,30,38,33,29,96,88,71,29.75,29.70,29.65,10,10,10,8,3,,0.00,3,Rain,232
2012-12-22,46,40,34,40,36,33,96,87,76,29.65,29.53,29.44,10,10,10,9,5,,0.04,6,Rain,240
2012-12-23,45,40,36,40,37,35,97,86,74,29.82,29.67,29.61,10,10,10,12,4,,0.00,7,Rain,245
2012-12-24,46,40,35,38,34,31,93,85,68,30.14,30.01,29.81,10,10,10,9,5,,0.00,4,,234
2012-12-25,44,40,36,38,35,32,93,87,79,29.96,29.66,29.55,10,10,10,9,3,,0.00,6,Rain,234
2012-12-26,44,40,37,40,38,34,93,89,79,29.94,29.76,29.66,10,9,4,10,6,,0.11,7,Rain,250
2012-12-27,46,42,37,39,38,36,97,88,73,30.13,30.07,29.94,10,10,4,7,4,,0.00,7,Rain,214
2012-12-28,45,41,37,40,38,35,97,89,80,30.15,30.11,30.08,10,10,7,8,3,,0.00,8,Rain,253
2012-12-29,45,42,39,42,39,37,93,92,89,30.24,30.17,30.14,10,9,4,7,3,,0.03,8,Rain,221
2012-12-30,42,38,35,38,36,33,97,88,77,30.32,30.27,30.23,10,10,9,7,3,,0.00,8,,180
2012-12-31,39,37,35,36,35,33,96,90,82,30.46,30.33,30.24,10,10,7,8,3,,0.01,8,Rain,161